THOR ABLESTAR DEB, 403

Orbit data source: Space-Track

THOR ABLESTAR DEB, 403 is space debris in LEO originally from a launch on Thu, 29 Jun 1961 UTC launched from the Air Force Eastern Test Range (AFETR). Debris objects in space refer to the collection of defunct objects orbiting the Earth. Examples of debris include non-operational satellites, rocket bodies, and fragments generated from explosions, collisions, or faulty payload assembly.

Loading next visibility...
Identifier
403, 1961-015EC
Orbit
LEO
Country
Flag of USUS
Related business
Manufacturer
Unknown
Mission
Spacecraft
Bus & Motor
Unknown
Mass
Unknown
Launch date (UTC)
1961-06-29 (65 years ago)
Launch vehicle
Unknown
Launch site
Air Force Eastern Test Range (AFETR)
Object type
Payload
Rocket body
Debris
Shape & HBR
Unknown shape, 0.2 m
Radar Cross Section
Small (<0.1 m²)

Expand to show TLE details & history
Last TLE update: 15 hours ago

TLE from 15 hours ago
0 THOR ABLESTAR DEB
1 00403U 61015EC  26145.52749840  .00000023  00000-0  91424-4 0  9996
2 00403  66.8419 340.5856 0023768 209.9739 178.7027 13.81232007268026
Epoch: 2026-05-25T12:39Z
TLE epoch observation values (Epoch: 2026-05-25T12:39:35.861Z)
Latitude
26.23431°
Longitude
-80.32333°
Altitude
979.31 km
Speed
7.356 km/s
True Right ascension
23h 30m 45s
True Declination
26° 06' 08"
Sunlit
Object was in daylight at epoch
Visualization orbit readout
Latitude
Unknown
Longitude
Unknown
Altitude
Unknown
Speed
Unknown
Apparent Right ascension
Unknown
Apparent Declination
Unknown
Sunlit
N/A
Visualization observer readout
Local Sidereal Time
13:01:06
Azimuth
Unknown
Elevation
Unknown
Doppler factor
Unknown
Orbital elements
Apogee altitude
975.353 km
Perigee altitude
940.48 km
Semi-major axis
7,336.053 km
Eccentricity
0.00238
Inclination
66.8419°
RAAN
340.5856°
Arg. of periapsis
209.9739°
True anomaly
178.70885°
Mean anomaly
178.7027°
Eccentric anomaly
178.70578°
Mean motion
3.45422 °/min
Orbital period
104.22 mins
BSTAR
0.000091424
Loading maneuver chart data...
Computing Atmospheric mass density...

Documentation

Showing up to 5 results
|